User: anonymous   Login
Location: Caltech
(34.1382°N, 118.1253°W)
Time: 04:20:41
(UTC-08:00)
Language:

Cosmos 1975 - Orbit

View from above orbital plane
View from above orbital plane
View from above satellite
View from above satellite

Ground track
Ground track

The orbit data is extracted from the following two-line orbital elements,

1 19573U 88093A   18053.57963389 -.00000131 +00000-0 -11453-4 0  9995
2 19573 082.5187 103.1971 0015114 159.7385 200.4445 15.04400243576314
Epoch (UTC): 22 February 2018 13:54:40
Eccentricity: 0.0015114
inclination: 82.5187°
perigee height: 543 km
apogee height: 564 km
right ascension of ascending node: 103.1971°
argument of perigee: 159.7385°
revolutions per day: 15.04400243
mean anomaly at epoch: 200.4445°
orbit number at epoch: 57631

The dashed part of the orbit path shows where the satellite is in the earth's shadow,  

DLR